sat.trackr.live / text

‹ back to catalog

STARLINK-31906

NORAD 59842 · 2024-097H

PAYLOAD ACTIVE UNKNOWN

§ Identity

Operator
Country
US
Launch date
2024-05-23
Launch site
AFETR
Launch vehicle
Mass (kg)
RCS (m²)

Purposes: comms

External: N2YO · Heavens-Above · Gunter

§ Orbital elements

Epoch: 2026-09-21T05:58:18.685632Z

Period
94.27 min
Inclination
43.0010°
Eccentricity
0.0001217
Mean motion
15.27579238 rev/d
Perigee alt
482.2 km
Apogee alt
483.9 km
Semi-major
6,861.2 km
B*
3.2850e-5
RAAN
250.0671°
Arg perigee
274.2008°
Mean anomaly
85.8704°
Rev number
13,182

§ Raw data

STARLINK-319061 59842U 24097H   26264.24882738  .00000642  00000+0  32850-4 0  99952 59842  43.0010 250.0671 0001217 274.2008  85.8704 15.27579238131829

JSON: /api/v1/satellites/59842 · /tle

For live sub-satellite position, see the globe view (requires WebGL).

§ Visibility from observer

Set your observer location to see the next 7 days of passes ≥ 10°. The values pass through the URL so the page stays shareable.

No JS? Fill the form by hand. The geolocation button needs JavaScript.